Weather in Mandrikovo

Russia / Chukotka Autonomous Okrug     67°15′48″N   159°10′09″E
temp.,
°C
wind,
m/s
gust,
m/s
humid.,
%
clouds,
%
prec.,
mm/h
press.,
hPa
HPBL,
m
17 august, wed
wed1700:00+9e6967100 0.0 1005236
03:00+8e5864100 0.0 1004225
06:00+8e2265100 0.0 100450
09:00+10se3556100 0.0 1005422
12:00+14ese6750100 0.0 1004865
15:00+13se4656100 0.0 1003880
18:00+13se3560100 0.0 1003345
21:00+10se2276100 0.1 100444
18 august, thu
thu1800:00+9ese2290100 0.6 100445
03:00+8ese2289100 0.1 100444
06:00+7ese2287100 0.1 100412
09:00+10se346791 0.0 1004501
12:00+10se4667100 0.0 1004543
15:00+10se3668100 0.0 1005446
18:00+10se2569100 0.0 1005422
21:00+9ese2275100 0.0 100611
19 august, fri
fri1900:00+8ese1182100 0.0 100710
03:00+6ese2284100 0.0 100710
06:00+6ese2285100 0.0 100710
09:00+12se346589 0.0 1008384
12:00+15sse6748100 0.0 10071184
15:00+17sse664046 0.0 10071491
18:00+18se56335 0.0 10071843
21:00+13sse33451 0.0 100713
20 august, sat
sat2000:00+9e22615 0.0 100810
03:00+7e22654 0.0 100810
06:00+6e22640 0.0 100810
09:00+12ese23470 0.0 1008360
12:00+16se45380 0.0 10071370
15:00+18sse44374 0.0 10071803
18:00+18ssw544125 0.0 10081368
21:00+13sse5762100 0.0 1009243
21 august, sun
sun2100:00+9ese2282100 0.0 101111
03:00+10ese2279100 0.0 101160
06:00+10ese2285100 0.3 101255
09:00+11se237880 0.1 1012277
12:00+14se456297 0.1 1012642
15:00+16se35526 0.0 1012835
18:00+17ese55497 0.0 1012860
21:00+12ese22680 0.0 101212